Regional Weather Roundup
Issued by NWS

Home | Current Version | Previous Version | Text Only | Print | Product List | Glossary Off
Versions: 1 2 3 4 5 6 7 8 9 10 11 12 13 14 15 16 17 18 19 20 21 22 23 24 25 26 27 28 29 30 31 32 33 34 35 36 37 38 39 40 41 42 43 44 45 46 47 48 49 50

000
ASUS43 KFSD 302110
RWRSD

WEATHER ROUNDUP FOR SOUTH DAKOTA
NATIONAL WEATHER SERVICE SIOUX FALLS SD
400 PM CDT TUE JUN 30 2015

NOTE: "FAIR" INDICATES FEW OR NO CLOUDS BELOW 12,000 FEET WITH NO
SIGNIFICANT WEATHER AND/OR OBSTRUCTIONS TO VISIBILITY.


SDZ001>005-009-010-012>017-302200-
NORTHWEST AND NORTH CENTRAL SOUTH DAKOTA

CITY           SKY/WX    TMP DP  RH WIND       PRES   REMARKS
BUFFALO          N/A     81  66  60 SE10      29.83F
FAITH            N/A     80  62  54 SE16G23   29.90S
MOBRIDGE       LGT RAIN  71  68  90 E8        29.90F FOG
$$

SDZ012>016-024>037-041>051-057-063-072>074-302200-
SOUTHWEST AND SOUTH CENTRAL SOUTH DAKOTA

CITY           SKY/WX    TMP DP  RH WIND       PRES   REMARKS
RAPID CTY ARPT PTSUNNY   83  70  64 NE14      29.91R
PIERRE         CLOUDY    76  66  71 E14       29.87F
CUSTER         PTSUNNY   81  51  35 VRB5      30.07F
ELLSWORTH AFB  DRIZZLE   81  70  69 N10       29.92R
PHILIP         PTSUNNY   84  69  60 E12       29.85S
PINE RIDGE     MOSUNNY   92  56  29 W8        29.90F
SPEARFISH      FAIR      84  64  51 NW5       29.97F
WINNER         FAIR      79  60  52 SE15G24   29.88F
$$

SDZ004>011-016>023-039-040-302200-
NORTHEAST SOUTH DAKOTA

CITY           SKY/WX    TMP DP  RH WIND       PRES   REMARKS
ABERDEEN       CLOUDY    76  62  62 E5        29.90S
WATERTOWN      CLOUDY    73  61  65 E7        29.92F
BROOKINGS      CLOUDY    75  63  64 E9        29.93F
SISSETON         N/A     73  61  65 S10       29.91F
$$

SDZ017-020-022-023-036>040-048>070-302200-
SOUTHEAST SOUTH DAKOTA

CITY           SKY/WX    TMP DP  RH WIND       PRES   REMARKS
SIOUX FALLS    LGT RAIN  75  64  68 SE6       29.92S
HURON          LGT RAIN  71  67  87 SE6       29.90F
CHAMBERLAIN    CLOUDY    74  65  72 SE9       29.90R
MITCHELL       LGT RAIN  72  69  90 NE6       29.91S
YANKTON        CLOUDY    72  64  78 SE7       29.89F
$$

ABBREVIATIONS USED IN REMARKS
   TC - TEMPERATURE IN CELSIUS
  WCI - WIND CHILL INDEX
   HX - HEAT INDEX
  VSB - VISIBILITY



USA.gov is the U.S. government's official web portal to all federal, state and local government web resources and services.